Wind_Speed
20 21 22 22 22 22 23 25 27 31 32 27 22 16 7 7 4 5 9 6 7 7 8 8 7 2 3 3 1 5 2 7 3 2 3 2 0 4 3 1 3 5 2 3 4 3 2 2 4 4 1 1 3 3 5 8 7 7 5 6 8 7 4 3 6 7 7 11 14 15 15 15 13 11 11 10 9 10 9 6 5 6 6 7 7 3 3
19 21 22 22 22 21 22 23 25 27 29 28 20 11 5 6 8 4 8 7 8 8 7 6 7 3 3 2 2 2 2 6 4 5 4 2 2 5 5 2 1 2 1 3 3 2 1 3 4 5 2 2 3 0 4 8 7 5 6 6 6 4 3 3 5 6 5 6 8 9 11 9 7 7 9 11 12 13 11 7 6 7 8 8 5 0 2
18 21 22 22 21 21 20 21 23 24 27 27 15 7 5 7 8 3 6 6 8 8 6 6 10 6 3 3 5 5 4 3 3 7 6 3 5 5 3 2 3 3 2 2 3 2 1 2 3 5 2 2 3 1 3 6 5 8 8 8 7 4 3 4 4 4 3 3 4 6 7 6 5 9 12 13 14 11 9 8 5 4 9 9 4 3 4
19 21 23 23 21 21 20 20 22 22 25 28 16 7 6 6 6 3 5 6 6 7 7 8 9 4 2 3 4 5 5 4 2 6 6 3 3 4 2 1 2 3 3 3 3 3 1 1 3 4 3 1 2 3 4 8 2 8 5 5 6 5 4 5 6 5 4 3 5 9 10 9 8 9 10 8 6 6 7 5 2 2 5 3 6 7 4
20 21 24 24 21 20 20 19 21 20 22 27 18 7 6 5 6 4 2 3 5 7 8 8 6 3 0 2 3 4 5 2 4 5 3 1 3 4 3 3 3 4 4 2 2 4 3 5 6 6 4 4 4 2 5 6 3 4 5 7 5 4 5 6 8 8 7 7 8 8 10 12 10 10 12 12 11 9 9 6 3 3 4 1 9 12 6
19 21 24 23 21 20 20 19 20 19 21 23 14 5 5 5 6 6 3 3 5 5 4 7 7 4 2 1 1 4 6 2 4 5 2 1 4 4 3 4 5 5 4 2 2 3 4 5 6 7 5 5 6 3 7 11 4 6 7 5 3 4 6 7 9 9 9 10 9 7 8 10 10 9 8 8 9 9 8 9 9 6 6 6 4 9 8
18 21 22 22 21 19 20 20 20 19 21 18 8 5 5 5 6 6 5 5 6 3 3 4 8 6 4 1 1 4 6 5 3 0 1 3 2 1 3 3 4 6 4 2 1 3 2 2 2 4 4 4 6 4 6 10 11 7 4 3 2 2 4 7 10 10 8 10 10 7 7 9 10 8 6 7 8 9 8 9 9 9 10 11 9 4 8
17 20 22 21 20 20 20 20 20 20 21 15 6 8 6 4 5 6 8 8 8 8 3 2 5 3 3 1 4 5 6 5 1 1 4 4 2 1 7 4 2 5 3 0 3 3 3 1 1 2 3 2 2 1 0 5 9 5 4 2 1 0 3 5 7 8 8 9 10 9 8 6 7 8 8 9 9 6 7 7 8 10 10 11 11 4 5
16 18 21 20 19 19 19 19 20 19 19 14 7 6 6 9 9 8 7 6 7 9 5 3 5 3 4 5 5 4 6 4 1 2 3 5 4 3 5 3 1 3 3 3 4 3 3 3 3 1 5 3 1 3 2 3 5 5 4 3 2 2 4 4 5 6 6 7 9 9 7 5 7 9 6 9 11 8 3 5 10 11 12 11 10 4 2
15 17 20 20 18 18 18 19 19 18 17 13 8 7 11 13 12 9 6 7 6 6 5 5 6 4 4 5 6 5 7 3 1 1 2 5 7 4 6 5 1 4 3 1 3 4 3 6 6 4 6 5 4 5 4 4 4 5 5 4 3 4 4 4 4 5 5 8 8 6 6 6 7 5 4 9 11 9 2 8 12 12 13 9 4 4 4
14 15 18 19 18 17 17 17 18 18 17 14 9 9 11 11 9 7 5 7 7 6 6 7 5 3 5 4 6 5 6 2 3 2 3 2 3 1 3 5 4 3 2 4 5 5 5 7 7 6 6 7 7 6 5 6 3 1 3 5 3 4 5 4 3 4 5 6 5 4 6 5 1 3 6 7 9 10 6 6 9 8 9 7 4 6 7
13 14 17 19 18 16 16 16 16 16 16 14 10 11 12 12 9 6 4 6 9 7 6 6 7 6 5 6 6 5 6 3 5 4 5 2 2 1 2 4 3 1 4 4 4 4 5 6 6 6 7 7 7 6 6 8 4 2 4 5 4 4 5 4 3 4 5 3 4 6 5 3 1 1 4 5 4 6 4 5 7 7 7 7 8 7 7
12 13 15 17 18 16 14 15 15 15 14 14 11 11 13 13 9 5 4 5 8 8 7 8 12 11 8 8 8 6 6 3 5 2 6 5 0 2 4 3 1 3 3 3 4 3 6 6 5 5 6 5 6 5 7 9 6 4 4 2 3 5 5 4 3 3 3 3 6 5 1 2 4 2 6 7 5 6 3 4 7 8 6 7 7 7 6
11 12 13 15 17 16 14 14 14 14 14 14 13 11 12 12 8 5 4 4 6 8 8 9 12 10 8 8 8 7 6 3 5 1 6 5 4 4 2 2 2 3 2 2 2 2 4 4 3 4 4 4 4 2 4 6 5 5 4 1 1 4 5 4 2 1 1 4 5 2 1 2 2 4 6 6 6 6 5 1 3 6 5 4 6 7 6
10 11 12 14 16 16 14 13 14 14 14 13 12 12 12 10 7 6 5 4 5 7 7 8 11 12 8 8 7 7 5 4 3 5 4 3 5 2 2 1 2 2 2 2 2 3 4 3 4 5 3 3 2 1 1 5 4 5 4 3 3 4 3 3 3 1 1 3 4 4 3 2 1 5 6 7 7 6 5 2 1 6 8 6 5 6 5
9 10 11 12 14 15 14 13 13 14 14 13 12 11 10 9 8 7 7 4 4 5 5 7 11 12 8 7 8 8 6 3 3 4 3 3 6 3 2 1 1 2 4 3 2 4 5 4 5 5 2 1 1 1 1 4 3 5 5 4 4 5 4 3 4 4 3 2 2 4 3 1 1 5 7 9 9 8 6 3 0 7 12 10 7 7 6
8 9 10 10 12 14 14 14 13 14 15 14 13 13 10 7 7 8 6 4 4 6 8 10 11 9 6 6 6 7 5 2 2 3 3 4 5 4 4 4 3 3 5 4 3 4 5 5 4 4 1 2 1 1 1 3 4 2 2 3 4 4 4 5 5 5 4 3 2 0 1 1 3 7 8 8 10 10 7 4 1 8 12 11 11 11 9
9 9 10 10 11 13 13 14 14 14 15 14 14 14 10 5 6 7 5 5 5 5 10 13 11 8 6 5 4 5 4 3 3 4 4 3 4 5 4 4 4 4 3 4 4 4 5 5 4 4 1 3 1 1 1 2 2 1 2 4 4 4 4 4 5 4 4 4 2 3 2 1 5 7 7 10 10 6 4 2 2 7 9 9 11 12 11
9 9 10 10 10 11 12 13 13 13 15 14 13 12 8 3 4 6 5 5 4 5 10 13 10 9 9 9 8 5 1 2 2 4 4 2 2 5 2 0 2 2 3 4 5 5 5 4 3 4 2 2 2 2 2 3 2 1 3 4 3 4 4 3 4 4 4 4 1 4 4 2 7 7 6 9 8 3 1 1 3 5 8 8 11 12 11
8 9 10 10 10 11 12 12 12 12 13 14 13 12 9 5 4 5 5 5 5 6 10 11 9 10 10 10 9 6 1 1 2 4 4 1 2 6 5 2 2 2 3 5 4 3 4 2 2 5 3 1 0 1 2 4 3 1 4 4 1 1 2 2 3 5 5 4 2 3 4 4 8 7 4 7 6 2 2 2 2 5 8 8 9 10 9
8 9 10 10 10 12 12 12 12 11 12 12 12 12 9 5 3 4 5 5 5 5 6 9 13 14 13 11 9 7 4 3 4 5 3 2 2 5 3 1 2 2 2 2 2 1 2 1 1 3 2 1 1 1 2 3 3 3 2 4 3 3 2 1 2 4 3 3 3 2 2 4 7 6 4 5 4 3 2 3 4 6 7 6 7 7 5
9 10 11 11 11 11 12 12 12 11 11 12 11 9 9 8 5 4 5 7 7 8 11 16 19 18 16 12 7 4 3 2 2 3 3 1 4 4 2 2 4 4 1 2 1 1 1 2 2 3 2 2 1 1 1 2 1 2 1 2 3 3 3 1 2 3 4 4 4 3 3 4 5 6 5 5 5 5 5 6 6 5 6 7 6 4 3
9 9 10 11 11 12 12 12 12 10 9 11 10 9 11 12 10 9 9 8 9 11 15 17 16 14 13 11 7 4 2 1 0 0 3 3 1 4 3 3 3 3 1 1 1 1 2 2 3 4 3 2 1 1 2 2 1 0 0 2 1 2 2 1 1 1 3 5 4 3 5 5 5 6 5 5 7 7 7 7 7 6 7 7 5 4 3
9 9 9 9 11 12 12 11 11 10 9 9 10 10 12 12 10 9 10 8 6 6 9 11 10 9 10 12 11 10 9 7 3 1 2 5 4 2 2 1 3 3 0 3 2 1 3 3 3 4 3 1 1 3 4 1 1 0 1 2 1 2 3 2 2 1 1 1 2 2 5 5 5 5 4 5 7 8 7 7 6 6 7 8 6 5 3
9 10 10 10 11 12 13 12 12 11 11 10 10 10 10 10 7 7 8 6 5 4 5 5 7 11 14 14 13 15 14 10 6 5 6 7 5 3 2 1 2 2 2 3 1 3 4 4 3 4 4 1 1 4 3 2 1 1 0 2 2 2 4 3 2 2 3 2 2 3 4 5 6 4 4 5 6 7 7 7 6 7 8 7 8 7 4
9 10 11 11 12 12 12 12 11 11 12 11 10 9 10 12 10 8 7 7 5 4 4 5 6 13 16 13 11 13 12 9 8 9 8 6 5 3 2 1 1 1 1 2 3 3 4 4 4 5 4 0 0 4 2 1 1 3 1 2 4 2 0 2 1 3 5 4 2 2 2 4 6 5 4 4 4 5 6 6 6 7 7 7 8 8 5
10 11 12 12 12 12 11 10 10 11 11 12 11 10 12 14 12 8 8 8 5 3 4 4 5 7 9 9 9 9 9 10 10 10 8 6 6 5 4 3 3 2 3 4 3 3 4 4 3 5 3 1 0 3 3 0 1 3 3 3 5 3 3 2 1 2 3 2 1 1 2 1 1 2 2 3 3 3 4 5 5 6 6 6 7 7 7
10 11 13 13 12 12 11 9 9 10 11 11 11 11 13 14 13 10 9 8 5 4 3 4 7 8 5 8 12 11 10 10 10 9 9 9 7 6 5 4 4 4 4 4 3 3 4 3 2 3 2 2 1 2 3 2 1 2 3 1 4 1 4 3 2 1 3 4 2 1 1 2 2 2 1 1 2 2 3 4 5 6 6 6 6 6 7
11 11 12 12 11 11 9 8 9 10 10 9 10 11 12 13 13 11 10 9 7 6 5 5 7 7 5 7 12 13 12 13 13 12 10 9 8 6 5 4 4 5 4 3 3 4 3 2 2 1 1 1 3 2 2 2 1 2 4 5 6 4 4 5 3 1 4 7 5 3 2 2 3 3 2 2 2 2 3 4 4 5 6 6 5 5 5
10 11 11 11 10 9 8 8 9 9 8 7 7 7 7 8 9 9 9 8 7 6 5 5 5 4 4 6 9 12 13 13 13 13 12 9 7 7 6 5 4 4 3 2 2 3 2 1 1 1 3 2 2 3 2 1 1 1 4 3 4 3 3 4 3 3 4 4 4 2 1 1 3 4 3 4 2 2 3 4 4 5 5 5 3 3 4
9 10 11 9 9 9 9 9 9 8 6 6 6 4 2 3 4 4 5 6 5 5 5 5 5 4 4 5 7 10 14 14 12 12 12 9 7 6 6 5 4 4 3 2 2 2 2 1 1 0 2 2 1 3 4 3 1 2 3 1 2 2 3 3 4 4 4 4 3 2 2 3 3 3 3 5 3 2 3 3 3 3 2 3 2 2 3
10 11 10 8 8 8 8 8 8 7 7 9 10 9 6 2 1 2 4 4 4 5 4 4 5 4 3 4 6 10 13 13 11 10 9 8 7 7 6 4 3 1 0 2 1 2 3 2 2 2 1 2 1 2 5 4 1 2 3 3 2 2 3 4 3 3 4 3 2 3 4 4 3 2 3 5 2 1 1 1 2 4 2 2 1 2 3
10 10 9 7 7 8 8 7 7 8 8 11 15 17 15 9 5 5 5 3 5 7 6 4 4 5 3 2 5 9 12 10 7 7 7 7 6 5 4 4 3 1 2 1 2 3 3 2 2 1 1 1 1 4 5 3 2 3 5 5 4 3 3 4 3 3 4 3 1 2 1 1 4 4 3 3 2 0 1 2 2 1 2 3 2 3 3
10 9 8 7 7 8 8 7 6 7 7 9 11 14 14 9 5 5 8 5 5 7 5 4 5 5 3 1 3 8 11 9 5 6 7 6 6 5 4 4 3 2 3 4 3 2 3 2 2 2 2 2 4 4 4 3 4 6 5 4 5 4 4 4 4 3 3 3 1 1 2 3 3 2 2 2 2 2 2 3 3 2 2 3 2 1 3
8 7 7 6 7 7 8 7 6 6 8 10 8 7 9 8 6 6 7 5 4 4 4 4 4 4 5 5 3 7 10 9 6 6 6 6 6 5 3 3 4 3 3 3 3 3 3 2 2 3 3 4 4 4 4 6 5 6 5 5 5 5 5 4 5 4 3 3 2 1 2 2 2 3 3 3 3 2 2 2 2 0 1 3 4 3 2
6 6 6 6 6 5 5 6 7 7 6 6 5 7 7 6 5 5 5 5 5 4 3 3 4 5 7 5 2 3 7 8 6 5 4 4 4 4 4 4 4 2 1 2 4 5 2 2 2 4 4 4 4 4 5 6 5 4 4 4 5 5 4 3 4 4 4 4 3 2 2 3 3 3 3 3 2 2 2 3 2 1 2 2 2 1 2
5 4 4 4 4 5 6 7 10 10 5 1 6 9 7 4 4 5 5 6 7 5 3 3 4 6 6 4 1 1 5 6 6 6 5 4 5 4 4 5 4 1 2 4 5 4 2 3 2 5 5 5 4 3 4 4 3 3 3 2 4 4 3 3 3 4 5 6 5 4 4 4 4 3 3 3 3 3 3 4 3 3 4 3 3 2 3
4 3 4 5 5 5 4 6 9 11 8 2 3 5 5 3 3 5 4 4 6 6 4 5 5 6 6 4 3 3 3 4 5 5 3 4 5 4 4 5 4 2 3 4 2 1 0 1 3 6 6 6 5 4 5 4 3 2 2 2 3 4 4 4 4 5 6 6 5 5 5 5 5 4 4 4 4 3 4 4 4 5 5 5 5 5 5
4 3 5 8 6 2 1 5 9 10 7 5 4 4 3 3 3 4 3 4 5 5 5 6 6 6 7 6 4 5 4 5 5 5 3 3 4 2 2 3 3 3 4 4 1 2 2 2 4 5 6 6 6 7 7 6 5 4 4 3 4 4 4 4 4 4 5 4 2 0 1 3 3 3 3 3 3 4 5 5 5 6 6 6 6 7 7
5 6 7 6 3 0 3 7 11 10 6 5 4 3 2 3 4 3 3 4 5 4 5 6 6 6 8 7 5 6 6 5 3 3 3 2 1 1 2 3 1 2 4 4 2 4 3 4 4 5 6 5 5 8 8 7 6 6 5 5 5 6 6 6 5 6 5 3 2 3 2 1 2 2 3 4 4 4 5 5 5 6 6 7 8 7 8
7 7 5 2 2 1 5 8 9 7 4 3 3 3 2 3 3 3 4 6 6 4 4 5 6 7 8 8 5 4 5 4 1 0 2 2 1 3 4 2 1 1 3 3 2 3 4 5 5 5 4 3 7 9 8 8 7 7 6 6 7 7 8 7 7 6 4 2 1 1 1 2 2 3 3 3 4 4 5 5 6 6 7 8 8 8 9
8 6 4 5 4 4 6 7 6 4 2 1 2 3 3 3 3 4 4 5 5 4 5 7 7 7 8 9 7 4 5 6 4 2 2 3 3 4 3 2 1 3 4 2 2 2 4 6 6 4 4 8 9 9 8 8 8 8 7 7 7 7 6 6 5 4 3 2 1 1 0 1 1 1 2 2 3 4 5 5 6 6 7 7 8 8 9
10 8 7 6 4 6 6 5 4 3 2 2 1 2 4 4 5 5 4 4 4 4 5 6 6 6 7 9 6 3 4 5 5 3 3 3 2 3 3 4 4 4 2 2 3 4 5 6 6 3 6 8 8 8 9 8 8 8 8 8 7 7 6 5 4 4 4 4 3 2 2 2 2 2 2 3 4 5 5 6 6 6 6 7 8 8 9
8 6 5 4 4 5 4 3 3 3 3 4 3 4 6 7 6 5 5 5 5 5 6 6 6 7 7 7 5 3 3 3 4 4 3 4 3 3 4 5 4 3 2 3 5 6 5 5 4 6 9 8 8 9 10 9 8 8 8 8 8 7 6 6 5 5 5 5 4 3 3 3 2 2 2 3 4 5 6 6 6 7 7 8 9 9 10
6 4 3 2 1 1 1 2 2 3 5 5 5 6 7 7 7 7 6 5 5 6 6 7 7 7 6 5 4 4 4 3 3 4 3 4 4 4 4 3 3 3 4 5 5 5 6 5 4 8 11 10 9 10 10 9 8 8 8 8 8 7 6 6 5 5 4 4 4 3 2 1 2 2 3 4 5 5 6 6 7 7 8 9 9 10 10
5 4 3 2 0 1 2 3 3 4 5 5 6 7 7 7 7 5 4 5 6 7 7 7 6 6 7 6 4 3 3 4 4 4 4 4 4 4 3 3 3 4 5 6 6 6 6 4 4 9 11 11 10 10 9 8 9 9 8 8 8 7 6 6 5 4 3 2 2 1 1 2 2 3 4 4 5 5 6 7 7 8 9 9 10 10 11
4 3 3 2 2 3 5 5 5 5 5 5 7 7 7 7 6 4 2 2 2 2 4 7 6 4 2 2 3 3 3 3 4 4 4 3 3 3 3 3 4 5 5 6 7 6 3 2 6 9 10 10 11 10 9 9 9 9 8 8 8 8 7 6 5 4 3 2 1 1 1 1 2 3 3 4 5 5 6 7 7 8 9 9 10 10 11
2 2 3 3 3 4 6 7 6 6 6 6 7 7 7 6 5 4 4 2 2 4 3 3 4 3 3 1 2 3 3 3 3 4 3 3 3 3 3 4 5 5 5 6 7 5 2 6 8 9 9 10 10 10 9 9 10 10 9 8 8 8 7 6 5 4 4 3 2 2 2 2 1 2 3 4 5 6 6 7 7 7 8 9 9 10 11
3 2 3 3 3 4 6 6 6 6 7 7 6 6 7 6 6 5 4 2 4 4 3 2 0 2 2 0 2 3 4 3 3 3 3 4 4 4 4 5 6 6 5 6 6 3 5 8 9 9 10 10 9 9 8 8 9 9 9 8 9 9 8 7 6 5 4 3 3 2 1 1 1 2 3 4 5 6 6 6 6 7 8 8 8 8 10
4 3 3 5 5 5 4 5 6 7 6 6 6 6 6 5 6 6 4 3 4 5 4 1 2 2 2 2 3 4 4 3 3 2 3 5 5 4 5 7 6 5 5 4 2 4 8 8 8 8 10 9 8 8 8 8 8 8 8 9 10 10 8 8 7 6 5 4 3 2 1 1 2 2 3 4 5 5 5 6 6 6 6 6 6 7 8
3 4 4 6 6 5 4 4 5 5 5 5 6 6 5 6 6 4 2 3 4 4 4 4 4 3 3 4 5 4 2 3 3 4 5 4 4 5 7 7 5 4 3 1 4 7 8 7 6 7 8 8 8 8 8 8 8 8 9 10 10 10 9 8 8 7 6 5 4 3 1 1 1 2 3 4 4 5 5 5 4 3 4 5 5 6 7
4 4 4 6 6 6 5 5 4 4 4 5 5 4 5 5 2 3 6 5 3 4 3 3 4 4 4 4 4 2 2 2 4 6 6 4 3 4 5 4 3 6 5 1 5 7 6 6 7 7 7 7 8 8 8 9 9 9 10 11 10 9 9 8 7 7 6 5 5 3 1 0 1 2 3 3 4 4 4 3 2 3 4 5 5 5 5
Wind_Direction
345 345 342 343 346 349 351 351 348 348 350 355 354 337 286 250 275 147 156 194 208 224 255 253 247 231 55 340 105 106 221 262 304 345 267 282 297 273 284 79 355 328 342 332 309 316 350 308 310 336 276 194 60 51 332 312 297 295 317 11 10 339 298 284 286 285 300 301 290 280 267 247 227 217 215 223 245 254 247 242 243 241 226 224 245 246 127
344 345 342 342 344 347 352 351 349 349 352 357 352 325 274 275 284 188 163 202 218 238 258 262 278 269 141 258 280 103 285 287 326 341 325 343 338 318 341 41 218 282 318 303 307 333 293 273 302 299 264 104 83 347 315 311 310 358 23 2 348 333 325 316 286 293 300 275 268 271 270 258 234 232 229 223 236 252 258 257 254 257 262 272 284 203 108
342 345 343 340 340 345 350 350 350 347 346 354 351 301 289 292 272 202 154 200 221 242 262 276 289 293 143 209 241 214 223 248 296 302 301 327 334 330 350 344 291 296 306 276 283 288 274 290 293 282 278 116 129 99 335 298 320 39 36 346 321 302 308 310 283 294 302 271 275 278 284 301 276 244 239 229 224 233 256 257 247 266 276 287 326 87 134
342 343 342 339 338 343 347 348 349 345 343 347 343 289 284 291 265 210 162 183 212 241 258 267 277 294 130 202 234 229 215 152 156 264 255 238 280 286 302 289 266 296 296 261 277 289 292 52 332 319 337 329 100 80 300 279 349 53 27 308 294 288 284 277 267 274 273 251 269 279 283 285 268 256 269 279 279 302 310 278 222 353 308 300 55 69 109
342 342 341 340 339 340 344 347 346 344 342 344 338 283 257 277 283 287 223 189 216 230 237 250 273 328 36 189 167 216 247 135 145 220 243 289 278 275 303 295 267 293 300 301 343 321 338 37 11 347 359 347 359 45 307 304 97 120 244 233 234 274 277 269 262 253 249 247 250 261 268 271 281 301 320 341 341 319 307 287 261 355 325 292 78 75 93
340 340 340 341 340 340 343 345 343 342 340 340 335 281 252 265 274 291 295 234 215 218 235 235 235 227 205 197 152 232 264 259 195 200 177 234 248 229 225 257 269 286 301 354 35 302 309 43 20 333 339 348 332 357 1 345 309 228 253 244 231 282 283 282 280 265 251 249 246 242 253 267 282 293 305 329 327 312 301 287 283 303 290 278 25 68 91
336 338 339 341 341 342 344 344 344 341 336 333 319 264 272 281 280 300 316 280 248 273 331 259 242 227 177 138 290 246 252 243 208 167 277 234 196 277 286 281 278 293 322 10 325 293 299 69 54 312 309 340 336 13 22 327 292 284 318 316 324 317 281 279 289 290 277 261 257 245 234 251 273 290 303 306 312 324 315 293 300 309 287 282 307 29 84
334 336 338 342 343 344 345 345 347 346 341 333 280 243 266 298 310 323 327 314 290 284 292 235 262 276 114 169 253 246 257 264 153 137 254 275 57 255 271 274 277 304 346 354 290 25 64 255 201 207 251 308 352 10 110 272 280 313 336 306 40 42 269 279 287 290 280 264 260 247 227 240 271 290 303 293 286 298 301 308 338 333 312 303 304 312 89
333 335 338 341 343 346 349 348 349 352 351 340 296 273 321 337 327 318 306 303 298 287 276 231 245 226 170 207 222 226 248 273 24 142 208 298 317 269 280 295 205 286 303 264 292 36 85 277 296 282 285 306 193 221 245 269 295 323 327 320 333 275 282 294 278 274 274 265 257 244 235 249 255 252 274 300 293 274 257 34 24 352 328 314 301 301 87
333 334 337 340 342 347 352 351 351 357 1 355 328 328 356 349 331 324 301 277 279 273 257 242 234 232 241 215 171 202 230 197 112 218 196 271 279 306 347 344 282 254 262 265 359 24 4 319 334 327 297 298 270 260 280 282 288 316 320 315 307 285 290 294 281 286 283 271 267 253 241 243 244 259 334 1 341 310 313 66 46 6 335 316 304 349 17
331 332 336 340 341 345 351 353 354 358 5 7 339 318 347 356 334 324 305 273 273 260 239 233 220 242 287 241 168 216 250 149 110 258 260 251 237 215 344 313 288 291 0 40 25 358 327 314 313 301 286 279 274 279 289 275 253 248 286 284 298 304 299 292 276 274 270 273 283 265 242 237 238 334 342 17 17 346 346 64 66 27 350 342 21 14 354
328 329 334 339 339 341 349 353 355 356 359 360 334 305 330 351 332 306 289 268 269 260 247 249 241 234 243 227 201 225 254 216 140 196 263 310 91 136 272 257 248 340 30 12 335 313 295 275 258 264 273 272 271 277 279 266 232 178 265 293 329 312 293 293 280 270 272 273 251 236 232 228 185 5 354 23 24 339 347 85 79 47 11 359 18 17 356
325 328 331 335 337 339 347 352 352 351 350 350 335 308 320 335 327 302 296 279 268 265 271 277 263 242 221 228 233 226 234 223 105 138 274 299 54 239 256 228 235 18 21 316 308 312 289 273 248 253 267 268 268 273 270 261 243 230 256 289 343 310 299 305 294 281 291 272 246 237 159 159 193 129 31 14 347 317 331 72 55 29 15 2 7 9 2
320 328 328 331 336 339 344 350 350 347 344 344 336 315 313 324 330 329 318 286 271 280 287 290 281 262 235 240 253 238 211 147 99 218 264 267 243 236 206 171 303 345 349 282 304 288 270 270 251 236 234 235 243 254 280 275 256 247 265 286 314 295 305 310 286 228 286 282 267 256 140 160 145 66 31 4 0 349 332 17 48 17 14 17 0 353 8
311 320 320 326 335 338 339 346 350 346 340 338 334 318 309 320 336 328 311 297 292 292 277 270 286 286 258 235 244 251 227 159 170 235 234 229 248 242 94 80 288 299 277 258 258 253 260 269 263 251 224 212 214 149 266 286 250 216 252 299 279 262 273 307 309 288 268 292 289 274 237 193 35 11 349 338 350 350 317 273 59 12 12 22 2 343 7
303 311 312 321 332 335 335 339 347 348 340 335 335 321 311 329 345 325 308 299 282 282 272 273 296 305 285 241 228 240 249 223 213 224 197 211 247 232 146 198 271 246 239 237 238 260 266 259 264 278 267 148 103 113 275 304 279 184 185 209 241 251 239 240 267 257 227 216 260 285 282 153 1 325 317 327 341 340 319 271 221 3 359 358 356 359 14
296 311 316 318 325 331 333 333 341 349 344 339 338 323 310 328 343 328 313 288 263 272 284 292 301 302 281 248 225 226 241 253 257 256 229 225 239 221 172 171 202 228 236 238 235 246 256 253 253 268 264 98 46 322 265 285 277 219 192 213 231 248 233 224 240 251 254 239 204 227 6 33 343 316 308 330 347 338 309 266 338 358 347 342 355 17 27
288 304 313 313 314 322 325 323 330 343 343 339 334 319 308 317 328 320 307 286 279 273 271 277 285 282 291 320 303 249 221 186 197 245 243 217 222 224 192 173 201 204 204 242 247 238 247 258 263 270 293 84 48 284 272 273 248 196 280 273 261 265 262 252 253 254 266 266 212 113 104 336 326 323 329 341 336 314 291 275 329 339 337 344 5 28 46
287 290 298 303 308 315 320 317 319 333 339 339 336 319 305 308 316 315 308 284 276 280 279 282 283 281 296 320 314 288 236 146 192 237 230 201 227 245 245 276 244 213 192 234 250 253 254 259 271 270 238 165 211 221 208 265 288 348 302 295 291 287 297 320 320 313 302 284 227 123 113 17 330 325 358 357 330 286 27 328 283 327 352 12 30 39 52
295 285 288 297 303 309 318 317 315 325 335 340 340 323 301 284 279 294 304 300 297 291 282 286 296 291 280 274 273 285 336 138 224 242 232 201 254 254 244 210 227 225 218 233 247 261 268 288 294 273 258 122 2 300 232 240 240 286 306 308 322 303 315 348 352 352 344 338 15 96 107 33 342 326 10 24 10 62 68 319 318 20 15 24 47 49 51
302 285 281 291 296 299 309 313 311 317 328 336 338 327 308 290 267 272 287 298 300 281 275 306 323 313 291 275 272 278 279 252 242 249 247 164 189 251 262 205 224 242 231 250 276 281 287 325 256 260 280 103 173 234 262 241 186 160 294 308 325 342 351 14 8 8 1 5 37 65 96 49 16 9 52 63 52 68 52 359 20 36 29 40 58 58 61
310 296 284 285 289 293 304 310 305 306 319 328 331 321 301 295 303 309 298 285 272 266 281 300 307 298 291 299 306 289 291 327 313 280 295 216 181 216 255 225 237 263 332 1 320 276 294 306 278 269 275 248 210 168 280 282 204 148 182 264 291 340 23 66 3 9 36 55 69 93 98 75 59 54 61 66 61 52 42 37 36 30 35 56 73 80 82
314 310 297 290 285 284 293 305 305 301 309 323 327 316 297 295 305 316 308 284 268 270 274 276 277 276 276 278 274 260 271 328 16 78 337 331 218 202 217 223 244 272 305 28 340 276 271 295 301 298 284 275 340 326 243 252 288 214 308 316 309 79 78 133 230 44 54 35 25 77 97 87 83 77 58 44 45 40 35 40 38 25 32 51 75 91 101
307 310 309 304 296 286 283 291 299 301 306 315 317 309 298 292 296 309 304 281 263 275 270 255 249 256 258 245 230 224 230 238 236 88 333 309 305 257 232 294 336 316 313 87 55 304 276 285 289 286 286 321 333 275 257 280 35 74 13 345 13 50 20 308 236 195 166 289 336 61 87 74 68 79 77 56 45 37 34 40 36 26 31 50 73 88 96
302 306 308 309 308 298 285 281 286 295 303 307 307 306 300 288 289 311 306 281 270 288 287 263 238 237 246 243 221 213 219 220 205 201 227 247 265 285 311 355 346 336 34 62 30 241 246 267 272 269 282 324 292 281 302 19 15 292 144 204 215 9 1 315 290 24 81 107 24 31 71 61 40 39 54 52 42 32 31 37 39 34 34 53 81 92 91
297 303 304 305 308 304 291 279 278 285 294 299 298 295 288 278 280 300 301 287 283 272 271 288 258 231 233 235 218 207 207 197 190 205 224 237 240 258 332 8 210 226 333 289 272 251 246 263 270 271 277 277 203 283 306 105 191 249 237 177 170 151 214 245 252 68 97 109 37 7 119 77 34 26 40 45 42 37 30 31 44 47 39 47 73 89 98
292 301 303 303 304 303 291 277 273 281 290 292 287 284 281 274 268 273 283 289 295 255 239 275 285 244 220 213 216 210 201 199 201 203 212 232 231 213 199 210 220 222 235 241 244 254 257 255 256 267 277 78 130 276 280 153 252 267 252 172 148 168 253 251 197 132 123 120 26 29 138 141 1 30 65 48 46 52 37 25 39 52 48 43 55 77 92
290 298 301 301 300 299 288 272 273 285 290 289 284 283 282 271 256 249 261 272 283 286 281 298 301 293 262 222 220 213 201 208 217 212 205 209 214 199 184 196 215 215 213 216 217 233 245 250 271 287 315 17 327 256 237 247 291 296 297 73 105 62 342 19 93 133 124 136 162 223 198 193 192 172 131 42 31 64 76 56 42 44 48 45 42 59 87
284 292 297 299 298 293 279 269 279 289 289 291 294 293 282 264 245 239 247 251 256 274 293 294 280 278 275 243 225 211 203 210 220 225 215 195 192 198 186 182 222 237 222 212 234 250 248 260 301 315 62 12 315 297 243 246 243 286 320 15 66 62 31 56 78 103 125 141 165 205 231 182 154 155 133 76 25 41 79 75 49 37 39 47 45 34 45
283 292 295 296 297 290 274 270 281 287 287 291 293 284 264 235 220 223 230 234 248 269 280 283 272 248 244 246 224 207 207 210 215 225 223 197 189 202 186 175 219 253 245 223 241 263 264 237 272 356 85 79 309 291 274 281 104 250 290 344 64 85 74 77 87 104 126 142 147 160 221 156 147 166 149 109 75 55 82 75 52 40 24 24 53 43 13
287 293 290 288 292 290 280 275 278 280 279 273 265 260 235 171 162 180 197 209 245 274 268 264 279 283 260 238 218 213 214 209 210 225 226 206 196 197 182 179 204 219 228 235 225 246 266 215 176 153 71 80 325 283 272 267 193 196 234 229 109 117 111 104 101 110 135 160 151 153 215 198 174 188 163 122 95 67 95 109 106 96 33 347 34 61 11
287 291 285 279 285 287 280 275 275 273 259 250 253 260 267 273 248 226 212 211 244 264 260 248 255 267 255 218 217 227 223 209 205 223 226 206 197 190 180 194 211 173 342 298 238 227 257 244 191 200 105 93 122 274 273 269 250 193 195 174 159 155 131 128 127 118 124 148 165 200 222 199 142 114 122 126 119 36 76 118 130 134 162 244 147 89 32
285 284 277 270 276 284 283 276 272 272 265 260 261 258 253 262 280 250 221 229 258 251 249 257 250 245 246 221 208 218 221 210 202 218 218 196 182 179 181 202 215 108 89 247 240 225 232 234 215 191 97 70 247 260 267 257 168 189 208 184 161 171 160 140 146 145 137 143 194 256 269 99 92 90 108 142 165 164 353 308 286 228 233 245 205 133 95
283 276 268 267 271 279 285 281 274 273 270 266 265 253 239 244 267 222 197 214 265 253 239 255 259 244 238 241 192 199 210 213 203 207 205 178 166 179 189 189 196 191 183 200 228 231 214 220 221 185 171 212 224 238 262 246 185 186 199 180 160 173 174 153 160 169 149 141 146 34 46 72 102 134 166 196 212 221 245 261 264 276 309 305 303 91 95
276 262 257 266 272 279 286 278 260 259 258 251 247 230 214 217 226 208 196 210 252 247 217 224 248 249 236 234 205 184 197 211 216 210 198 169 167 194 207 184 187 197 182 185 233 243 219 207 225 224 220 222 214 217 256 257 220 183 175 174 173 179 183 176 174 171 150 148 166 160 132 152 183 194 198 216 232 230 235 248 250 234 321 310 322 0 15
255 248 253 268 273 272 269 247 226 230 248 244 202 168 170 186 197 201 219 243 254 260 250 221 220 232 233 233 227 188 204 211 210 197 181 158 172 210 228 210 196 183 134 183 236 241 196 138 196 237 237 234 225 212 224 238 221 164 153 170 169 170 187 190 176 171 167 167 176 196 203 208 215 209 208 227 235 232 257 275 276 259 250 265 288 313 302
230 239 255 263 252 234 226 214 207 212 223 145 123 140 151 162 185 199 227 243 230 228 261 268 243 235 231 218 163 243 231 219 203 192 187 179 181 197 217 215 200 170 179 211 234 244 169 129 205 245 242 245 245 203 168 178 173 143 158 174 152 154 179 187 176 184 185 177 182 199 211 221 229 222 222 234 227 219 239 258 269 283 284 277 278 284 283
214 229 239 235 224 214 207 190 188 199 209 188 129 154 165 176 207 210 214 220 205 197 221 258 255 249 246 227 179 170 215 221 204 191 191 202 196 188 202 208 192 175 206 219 239 296 140 179 240 250 247 245 236 181 140 138 143 150 180 181 155 157 175 182 189 199 196 189 194 199 202 214 224 223 228 242 244 249 260 263 269 281 285 287 298 305 299
196 218 227 226 223 215 145 140 148 159 176 198 222 219 192 185 219 223 202 203 208 200 210 232 239 245 252 240 191 174 210 233 213 180 174 237 236 212 215 219 189 176 220 231 179 131 186 224 239 247 250 241 208 169 151 157 168 168 175 178 163 161 170 178 193 208 213 224 253 241 177 215 233 234 243 258 260 262 267 268 271 277 283 289 294 294 290
218 231 222 219 224 170 132 145 145 145 160 193 214 223 212 207 221 222 204 207 215 210 209 221 226 232 244 245 219 189 198 221 221 181 182 221 240 169 215 238 193 174 228 237 168 154 202 233 228 235 251 243 180 149 147 157 163 162 168 171 164 164 172 182 191 199 212 245 315 16 33 330 288 271 266 269 271 270 272 275 276 278 281 283 281 277 279
219 228 225 240 280 212 156 159 163 168 188 206 200 205 222 226 231 236 222 216 217 213 208 212 214 216 227 235 230 194 181 183 179 69 205 217 214 196 203 212 41 240 239 230 156 167 219 239 234 228 218 167 140 137 142 150 153 154 158 160 161 169 178 186 189 187 189 209 318 15 358 321 299 281 278 283 286 285 286 286 285 279 272 272 274 274 273
224 237 281 309 283 209 169 169 180 187 188 203 219 227 225 218 224 232 225 222 227 218 198 202 213 215 211 212 212 195 178 182 186 193 198 206 234 235 207 163 158 236 227 181 145 184 219 234 240 224 145 131 135 139 142 146 148 150 152 152 159 171 182 187 184 171 160 161 162 142 147 280 279 282 288 284 277 275 274 275 277 279 276 275 279 281 281
240 255 286 293 248 189 172 182 195 187 173 172 199 231 227 215 213 217 214 221 240 228 192 190 205 207 199 201 203 174 153 178 200 213 199 185 204 242 220 194 205 226 202 157 183 212 221 234 239 194 136 134 143 147 147 148 150 149 149 151 157 167 177 182 176 158 151 155 156 153 173 216 235 242 259 275 277 277 280 282 284 288 289 288 285 283 283
245 256 269 256 203 172 172 191 194 194 204 199 190 209 220 213 208 212 209 208 218 214 190 184 198 199 188 188 190 162 143 176 214 219 196 180 187 211 215 210 210 206 187 208 224 227 229 237 216 150 140 148 154 151 150 153 153 149 149 153 160 167 172 172 166 157 154 159 170 187 203 220 236 257 286 302 301 299 297 298 297 295 293 290 288 288 291
227 220 210 196 173 169 186 186 189 207 217 212 208 218 223 214 209 215 213 202 203 203 191 186 198 201 185 176 187 188 175 182 205 206 196 197 205 209 213 218 216 207 214 229 234 231 233 234 182 144 148 158 157 152 154 156 152 150 155 161 163 167 170 168 165 165 168 175 189 206 225 282 324 321 312 308 307 306 303 299 298 298 297 295 294 295 298
220 201 178 152 188 243 218 193 196 210 217 215 217 223 228 228 228 227 210 193 199 203 192 185 195 201 186 174 179 193 186 182 190 199 205 213 213 210 213 223 226 225 228 232 234 238 243 237 161 144 151 153 148 148 155 156 151 152 159 165 165 165 169 169 168 168 171 174 170 141 11 340 323 312 307 305 304 306 305 303 304 304 301 299 301 301 297
222 212 205 190 191 212 215 215 217 218 221 227 227 224 227 237 249 265 265 213 209 214 201 192 186 174 160 180 190 189 187 192 196 195 200 211 216 215 217 221 223 226 228 230 235 243 242 140 127 137 145 145 146 152 157 156 154 156 160 164 166 167 167 166 164 160 154 145 134 144 238 269 274 277 288 300 306 308 306 303 301 299 295 293 293 295 293
230 210 213 210 199 202 212 222 230 231 230 233 235 233 234 239 248 257 249 219 73 34 349 234 184 124 62 343 232 186 179 202 213 199 193 204 210 206 212 226 232 232 227 232 240 240 175 126 128 136 141 143 150 156 159 158 158 159 160 163 165 164 162 161 157 149 142 145 166 198 215 237 276 293 296 298 297 297 299 300 299 299 298 296 292 292 294
269 252 228 228 232 224 219 222 233 239 238 237 236 235 233 232 233 239 236 187 112 83 41 352 298 135 119 203 222 196 187 202 215 204 201 213 215 207 208 222 229 226 222 231 240 212 139 131 135 141 147 151 155 159 161 160 158 158 163 167 165 160 156 154 150 147 152 165 174 177 191 252 307 302 289 289 294 299 303 305 302 298 298 299 297 297 299
260 252 241 235 236 234 223 219 224 229 233 236 236 233 231 229 230 230 217 161 123 114 109 124 219 206 170 180 210 211 198 193 199 204 214 220 221 220 224 229 233 233 232 239 229 124 123 133 143 147 147 149 153 155 155 153 152 158 164 163 157 152 152 154 155 156 158 154 138 116 105 267 280 287 287 294 304 305 296 289 288 290 294 301 305 303 302
240 239 243 242 242 246 254 251 243 239 239 242 241 238 233 230 233 236 196 125 125 136 157 187 201 189 169 190 210 210 184 180 197 209 217 222 225 230 234 235 242 253 252 179 117 118 127 138 143 143 144 148 152 151 147 146 149 153 152 146 143 145 152 158 160 158 153 149 148 151 170 223 277 300 297 290 287 285 283 285 294 304 306 312 317 316 313
235 239 245 243 240 243 256 266 268 267 257 245 240 243 246 237 219 50 47 65 128 168 187 198 194 185 187 202 208 191 165 192 211 214 213 215 234 243 242 246 280 291 288 214 133 140 146 142 137 139 145 149 147 142 141 144 146 145 144 144 146 149 154 155 154 153 155 160 162 158 143 78 277 263 265 267 271 281 291 304 325 334 326 321 322 324 326
Height
824 822 820 817 815 813 811 808 805 801 797 794 793 792 787 785 779 767 764 768 766 775 785 776 764 766 768 764 761 765 770 769 765 763 762 762 764 763 762 764 771 771 769 772 772 770 774 775 772 773 773 769 768 766 764 763 762 763 768 768 765 766 774 785 786 773 761 753 743 735 729 727 733 733 730 734 738 736 738 745 747 749 753 751 753 775 788
823 821 820 817 815 814 811 809 807 804 801 799 798 794 786 781 774 763 764 766 765 777 785 778 770 765 763 766 766 766 769 769 768 769 767 764 766 768 766 765 770 770 768 770 772 774 780 783 776 773 774 771 766 764 764 765 764 766 773 774 772 776 782 788 796 795 788 778 767 755 741 734 737 736 730 732 734 733 735 735 742 752 750 744 759 786 793
823 821 819 817 815 813 811 810 807 805 804 802 801 796 787 782 774 763 761 762 766 774 775 773 773 767 765 771 771 770 771 769 769 772 770 766 767 771 770 767 767 767 767 771 771 770 777 785 780 773 773 770 765 764 766 766 765 768 772 772 772 779 783 786 800 815 821 816 803 787 769 753 746 741 736 733 731 737 746 746 753 767 756 746 767 791 789
823 821 819 817 815 813 811 810 807 806 804 801 801 798 789 785 779 768 764 763 765 768 764 764 768 765 768 775 772 771 774 769 767 770 770 768 767 769 769 766 768 770 770 775 777 772 771 779 781 780 781 776 767 766 768 765 766 770 772 771 772 779 781 781 790 800 807 809 796 781 774 767 758 750 744 740 737 740 748 753 763 771 765 763 775 783 783
823 821 819 817 815 813 811 809 807 806 804 801 800 795 787 785 781 772 770 770 769 769 763 762 765 763 767 774 773 772 774 771 770 770 769 769 767 769 770 768 772 776 774 778 785 781 775 778 782 783 784 779 770 767 768 766 768 771 771 768 772 781 784 779 779 781 781 782 777 770 770 768 762 758 756 754 750 748 754 760 759 761 771 778 774 774 785
823 821 819 816 814 813 810 809 807 805 804 802 801 794 784 784 779 766 764 770 771 770 765 761 763 764 765 769 772 773 774 774 774 772 769 769 769 772 776 773 772 773 772 779 788 787 783 786 788 786 783 780 776 774 772 772 771 769 767 764 767 781 787 778 774 775 770 767 766 765 768 768 762 761 761 760 758 757 760 761 753 754 771 776 765 768 783
823 821 819 817 814 813 810 808 806 804 802 800 800 797 785 780 778 766 761 765 765 762 760 759 761 762 764 770 773 775 776 774 771 770 772 773 769 773 780 778 773 770 769 776 785 787 788 792 792 788 785 783 783 785 787 783 773 768 770 768 767 780 788 779 775 777 771 766 764 762 766 770 766 763 762 761 761 760 760 760 756 758 765 762 757 768 780
823 821 819 817 814 813 810 808 806 803 800 797 796 795 787 783 783 779 774 771 764 759 757 760 766 766 768 776 776 772 774 772 768 770 776 780 776 775 780 777 772 772 772 776 782 780 782 789 787 784 786 786 786 790 792 786 775 771 774 772 771 781 787 778 776 782 778 768 765 763 765 771 772 770 768 764 763 763 762 765 766 768 771 765 761 773 786
823 820 819 817 815 813 811 809 806 803 801 798 793 790 786 784 783 782 784 782 773 766 762 762 769 773 773 776 774 773 774 772 771 772 772 775 778 775 775 774 773 773 774 777 778 774 774 779 777 775 779 780 780 782 780 778 778 777 776 775 775 780 785 778 779 790 786 771 767 767 765 769 776 776 774 772 770 766 765 773 781 783 784 779 774 781 792
822 820 819 817 815 814 811 809 807 804 802 800 797 792 788 788 786 782 785 787 777 771 768 766 771 774 769 767 769 772 771 766 771 779 775 771 772 771 771 774 775 777 779 778 775 771 771 773 770 769 771 770 770 771 769 770 777 779 779 780 778 779 784 782 785 796 791 774 768 769 771 784 791 783 776 777 776 769 768 776 785 789 789 791 792 792 789
822 820 819 817 815 814 812 811 808 806 805 804 803 799 793 794 794 787 788 792 782 771 770 770 771 770 764 761 766 769 767 765 772 783 782 773 769 769 772 775 778 781 779 773 768 767 768 768 767 767 768 769 767 767 767 767 770 774 778 779 778 779 783 783 785 796 795 779 770 774 788 804 803 783 772 775 778 777 778 782 786 789 791 793 796 794 787
821 820 819 817 815 814 812 812 810 808 807 806 806 804 798 797 798 792 792 796 786 773 772 770 766 765 763 762 765 767 767 767 770 776 779 774 771 772 772 775 781 781 773 767 765 767 769 770 771 771 770 770 768 767 769 770 768 768 771 775 779 782 783 782 782 789 789 779 779 796 811 808 792 775 768 770 773 775 779 785 787 788 790 790 791 793 790
821 820 819 817 816 814 813 812 811 809 808 807 805 804 802 799 798 794 793 795 789 779 776 772 763 759 761 762 763 764 764 764 767 773 776 774 775 775 772 773 778 774 768 767 769 773 779 779 778 779 776 773 771 771 771 770 769 768 767 771 778 783 784 784 782 787 794 791 793 806 807 791 778 774 772 771 774 775 780 791 795 791 790 791 791 791 789
821 819 819 817 815 814 813 812 811 810 808 807 806 804 803 801 800 797 795 797 793 783 779 779 770 761 761 762 762 763 763 765 772 777 776 775 775 774 771 770 771 767 766 770 774 780 785 785 784 785 782 780 784 785 778 771 768 769 769 769 774 780 784 786 786 790 799 805 801 793 789 788 787 785 780 777 779 781 783 796 803 794 787 788 791 791 790
820 819 818 817 815 814 813 812 811 810 808 807 806 804 803 802 801 800 797 797 797 789 783 783 777 767 764 763 763 766 767 770 777 777 775 774 773 771 768 767 767 766 767 773 780 783 785 787 792 793 790 791 798 796 787 778 771 768 770 772 773 777 781 787 794 792 792 805 811 800 798 808 807 796 785 777 776 776 776 790 804 797 785 785 790 791 791
819 818 817 817 816 814 813 812 811 810 808 807 806 804 804 803 802 801 798 797 800 795 783 775 771 768 766 763 762 766 770 772 776 779 780 780 776 771 767 766 767 769 771 776 782 783 786 790 793 794 792 793 798 798 793 789 782 773 769 771 773 776 776 780 791 793 789 801 815 815 815 817 809 796 786 777 775 774 775 792 808 801 789 786 787 790 794
818 818 817 816 815 814 813 812 811 810 808 807 806 804 803 802 802 802 799 797 797 792 778 770 770 770 768 767 765 765 767 770 775 781 784 783 778 773 770 769 769 769 772 779 783 784 788 790 787 789 789 784 789 798 797 794 794 789 780 777 778 779 778 780 788 791 788 793 805 815 820 816 803 793 787 780 776 776 788 810 817 803 793 791 789 794 800
817 817 816 815 815 814 813 812 811 810 809 807 806 804 802 802 803 802 800 798 796 790 776 769 771 771 767 766 766 764 764 769 776 781 781 779 777 775 772 772 773 773 773 780 785 786 789 788 785 788 791 785 786 796 797 793 796 797 791 787 786 783 779 779 784 787 786 788 800 814 817 808 797 791 787 781 780 787 806 822 815 799 795 794 792 797 802
816 816 815 815 814 813 812 812 810 810 809 807 805 804 802 802 802 802 800 798 795 790 778 768 769 769 764 764 765 761 759 765 774 778 782 785 780 772 769 770 772 775 776 779 784 785 786 789 786 782 787 789 785 788 793 792 791 791 789 791 794 793 790 786 787 789 787 784 794 812 816 803 793 791 786 783 792 807 816 812 800 795 795 794 796 800 801
815 815 814 814 813 812 812 811 810 810 809 807 806 804 802 801 801 802 801 798 795 791 780 771 770 769 765 765 767 765 764 769 775 776 781 786 780 774 780 783 777 777 780 782 786 787 785 794 796 784 782 789 786 784 789 789 785 785 788 792 792 793 799 803 797 794 796 798 804 820 825 807 791 791 792 793 802 811 808 799 795 795 795 795 800 802 800
814 814 813 813 813 812 811 810 810 809 808 807 806 804 802 801 801 801 801 799 799 794 783 775 774 772 767 764 762 763 766 770 773 773 775 778 776 778 790 790 780 779 780 781 788 790 785 792 796 786 781 785 785 786 789 790 788 784 783 787 790 788 795 805 801 795 804 816 818 818 814 801 791 795 801 800 799 798 796 796 797 796 794 798 803 804 802
813 812 812 812 811 811 810 810 809 809 808 807 807 805 803 801 800 801 800 798 798 794 785 779 778 774 770 767 764 765 766 766 767 768 771 776 776 777 782 782 778 777 775 778 789 792 788 789 790 785 783 784 784 784 786 790 798 794 784 787 796 794 791 796 798 794 797 806 807 801 797 795 794 796 798 797 795 793 793 796 797 796 796 798 802 804 804
812 812 811 811 810 810 809 809 808 808 807 807 806 805 803 801 799 800 800 797 795 791 784 780 779 775 771 769 769 769 768 768 769 768 770 776 777 775 774 776 777 773 770 776 786 788 788 790 788 785 787 785 785 789 789 790 797 795 787 788 791 787 785 789 794 795 795 796 796 794 794 796 795 795 797 796 795 794 794 796 798 798 797 798 800 803 803
811 811 810 809 809 808 808 808 808 807 806 806 806 804 803 801 800 799 798 795 793 790 784 777 776 775 771 769 769 770 770 770 770 770 771 775 778 779 776 773 773 775 774 776 778 780 784 787 784 785 787 782 782 789 791 792 795 792 795 803 798 786 785 790 792 796 803 806 801 795 795 797 796 797 799 798 797 797 797 798 800 799 798 799 801 802 802
810 810 809 809 808 807 807 807 806 806 806 805 805 804 802 801 800 800 800 796 793 792 789 782 774 770 769 766 765 768 768 768 770 772 773 772 773 777 777 772 772 777 777 776 775 779 784 784 782 785 786 782 782 785 786 792 795 791 797 809 802 790 790 793 792 795 804 808 803 797 796 797 797 799 801 801 801 801 799 798 800 800 800 801 802 802 803
809 809 808 807 806 806 805 805 805 805 805 804 803 803 802 800 799 800 800 798 794 793 792 786 774 766 765 765 764 764 766 768 770 771 772 771 771 772 774 773 774 775 775 776 776 778 782 783 783 785 785 782 783 785 784 788 791 788 790 794 790 789 793 793 792 799 806 808 805 801 801 803 802 801 802 802 803 803 802 801 801 801 802 802 802 804 805
808 807 807 806 805 804 804 804 804 804 803 803 802 801 800 799 799 799 799 799 798 795 791 787 776 765 762 764 765 765 766 768 769 770 770 771 771 772 773 774 776 776 777 778 778 778 781 783 783 783 782 780 780 782 781 782 783 786 787 784 783 789 792 788 793 805 812 811 808 806 808 811 810 805 804 804 803 804 805 804 803 803 804 804 804 805 807
806 806 805 804 803 803 802 802 803 802 802 802 801 800 799 797 797 798 798 798 799 797 793 788 780 771 768 767 765 766 768 768 768 769 769 770 770 771 772 774 775 776 777 778 780 781 782 784 783 780 780 781 782 782 781 781 785 790 789 783 783 790 791 790 797 807 809 808 806 805 806 810 808 804 804 804 803 804 806 806 805 805 805 805 805 806 808
805 804 804 803 802 802 801 801 801 801 801 800 799 799 797 795 794 796 797 797 798 796 793 790 784 777 775 771 766 765 767 768 768 767 767 768 770 770 771 774 775 774 773 776 780 781 780 781 782 781 780 783 786 786 784 787 796 801 796 787 785 788 789 790 795 800 800 801 802 801 802 804 804 802 803 804 803 804 806 806 806 806 805 806 807 807 808
803 803 803 802 801 801 800 800 800 800 799 800 800 798 795 792 793 795 795 796 797 795 793 792 787 777 771 768 765 765 766 766 767 767 765 766 769 769 770 773 773 772 773 775 778 780 780 781 782 782 780 781 787 790 789 794 803 805 796 789 789 789 789 790 792 795 798 798 797 798 799 800 800 800 801 803 804 804 805 807 807 808 808 807 808 808 808
802 802 801 800 800 800 799 799 799 798 799 800 799 795 792 791 792 793 793 795 796 794 792 792 787 779 771 767 765 765 765 765 766 766 765 765 767 769 770 772 772 773 775 777 778 778 779 782 785 787 784 783 788 792 790 793 803 803 794 790 791 790 789 791 791 792 795 795 795 798 799 798 798 800 802 804 804 804 805 807 808 809 809 809 808 809 810
800 800 800 799 799 798 798 798 797 797 798 798 796 793 790 790 792 792 792 794 795 793 792 791 788 783 777 771 765 763 763 764 765 766 765 765 767 769 770 771 772 772 774 777 780 781 780 780 784 788 788 786 790 793 791 793 800 799 792 790 791 790 790 792 792 792 794 795 796 800 800 798 799 802 803 804 805 804 805 806 806 808 809 808 808 809 810
799 799 798 798 798 797 797 797 796 796 796 795 794 792 790 791 792 791 792 794 794 791 788 788 788 784 776 769 766 764 764 765 767 768 767 765 766 770 773 772 773 775 777 779 782 781 779 778 782 787 789 788 790 794 794 793 795 794 790 789 791 790 790 791 792 793 795 795 797 800 801 800 801 802 803 803 804 805 805 805 805 806 806 806 806 808 810
798 797 797 797 796 797 797 795 795 795 795 794 792 790 789 790 791 790 792 793 792 789 786 786 787 784 775 770 769 767 764 766 769 771 770 767 767 771 775 774 775 779 780 779 779 780 779 779 783 788 790 788 790 796 796 792 790 791 790 788 789 791 791 792 793 794 795 796 797 799 800 801 802 803 804 804 804 804 805 805 805 805 806 805 805 805 808
796 796 796 796 795 796 795 794 794 795 793 791 789 787 788 790 790 790 792 792 790 789 786 784 786 785 781 778 777 768 763 766 770 769 768 769 768 770 773 776 780 782 780 778 780 782 781 780 783 787 788 788 791 797 796 790 786 786 788 788 789 791 792 794 794 795 795 796 798 799 800 801 803 804 804 804 804 804 804 804 804 805 807 807 806 806 808
795 795 795 795 795 795 794 793 793 793 791 789 787 786 788 789 789 790 791 790 790 790 786 781 782 783 781 782 781 771 764 767 769 766 766 771 773 772 772 777 782 782 779 780 784 783 779 779 784 788 789 789 790 792 789 787 785 784 786 788 788 789 792 793 793 794 796 797 799 800 801 801 803 803 804 804 804 804 805 805 805 806 807 808 808 808 808
794 795 795 794 795 794 792 790 789 789 789 788 787 787 788 789 789 790 790 789 789 789 787 784 782 777 773 777 781 776 770 769 768 766 768 772 776 775 773 777 783 784 782 785 785 780 776 779 786 791 790 786 782 781 780 782 783 784 784 786 786 788 790 791 791 794 796 798 800 802 802 802 803 803 804 804 804 804 806 806 806 806 807 807 807 808 808
794 794 794 794 793 789 787 785 785 786 788 788 788 788 788 788 787 788 787 786 786 785 784 785 783 774 769 772 775 774 772 770 767 770 773 772 773 774 774 774 778 781 785 787 783 777 779 785 789 790 787 780 776 776 777 779 781 782 783 785 786 788 790 791 792 794 797 799 800 801 801 802 803 803 803 804 804 804 805 806 806 807 807 807 808 808 809
794 794 793 792 789 785 783 784 784 785 787 788 788 787 786 786 788 788 784 781 782 782 780 781 779 773 770 772 772 770 770 770 770 775 779 777 776 780 782 777 773 778 787 789 783 781 789 795 792 788 784 777 773 774 776 777 780 782 783 783 785 787 789 791 792 793 795 796 797 797 799 801 802 802 803 803 804 804 805 805 806 807 808 808 809 810 810
794 792 790 788 785 784 784 785 785 786 787 787 787 787 786 786 786 784 780 780 781 778 774 773 773 768 767 769 769 767 767 768 771 775 779 777 775 780 785 781 775 780 791 790 780 780 790 794 790 787 785 778 772 773 774 776 779 781 781 783 785 787 789 791 792 793 794 794 795 796 798 799 800 801 802 803 803 804 805 805 806 807 808 809 810 810 810
792 790 788 786 785 785 785 785 785 786 786 786 786 788 789 788 783 777 776 780 780 773 765 765 768 767 764 763 765 765 765 766 768 772 778 779 775 777 783 784 782 788 796 790 778 777 785 787 784 783 780 775 772 772 774 776 778 780 781 782 784 786 788 789 790 791 793 794 796 797 799 800 801 802 802 803 804 805 805 805 806 807 808 809 809 809 809
790 789 787 786 786 785 784 785 785 785 786 789 791 790 787 785 782 777 774 774 771 764 759 759 762 761 758 757 759 762 764 765 767 771 779 783 778 773 776 782 787 792 793 783 774 778 785 785 780 777 773 771 772 773 774 776 778 780 781 782 784 786 787 788 789 791 793 795 796 798 799 800 802 802 803 804 804 805 805 806 806 807 807 807 808 808 808
789 789 789 788 785 783 784 784 783 784 788 793 797 795 788 780 776 774 771 766 760 757 755 754 753 753 753 752 754 758 761 762 764 767 773 778 777 772 775 781 784 782 776 771 773 781 784 780 775 772 770 771 772 772 774 776 778 778 780 782 783 785 787 787 788 791 793 794 797 798 799 800 801 802 803 804 804 804 805 805 806 806 806 807 807 807 807
790 788 789 787 782 781 785 785 782 784 790 792 791 791 786 778 770 768 765 761 756 753 751 750 750 752 753 752 753 758 761 761 761 764 768 771 771 773 778 780 776 770 768 770 773 775 772 766 762 763 767 769 770 771 773 775 776 778 780 782 783 785 787 787 789 791 792 794 796 797 798 799 800 801 802 803 804 804 805 805 805 806 806 806 806 806 806
789 787 788 789 786 785 788 788 784 785 787 783 779 776 773 768 764 760 755 750 748 747 747 746 748 751 752 751 752 757 759 760 762 766 766 767 770 774 774 771 765 765 770 773 772 770 766 759 756 759 765 767 768 770 772 773 775 777 780 782 783 785 786 787 789 790 792 794 795 796 797 799 800 801 802 803 804 805 805 805 805 805 805 805 805 805 805
786 783 784 788 789 787 786 787 785 781 776 770 767 765 762 758 753 747 742 740 741 743 744 744 746 749 750 750 753 756 756 758 763 764 762 766 772 772 765 763 765 769 772 773 771 768 762 754 752 757 763 765 765 769 772 772 773 776 779 781 783 785 786 787 789 790 792 793 795 796 798 799 800 802 803 803 804 805 805 805 805 805 805 805 805 805 805
784 780 779 783 786 784 780 777 774 769 764 759 757 756 754 750 745 741 739 738 740 742 742 741 744 749 751 751 754 756 755 757 762 763 761 765 771 767 761 764 771 772 771 773 771 763 754 751 753 758 762 763 765 769 771 771 773 775 778 780 783 784 785 787 789 790 792 794 796 797 799 800 801 802 803 804 804 805 805 805 805 805 805 805 805 805 805
781 779 779 780 779 776 772 767 761 757 755 753 751 748 746 745 745 744 742 741 744 750 752 748 747 752 757 757 758 759 759 761 765 764 759 763 770 772 771 774 773 766 763 764 761 753 750 753 757 758 760 762 765 768 770 771 773 774 776 779 782 783 785 788 789 791 793 795 796 798 799 800 801 802 802 803 804 804 804 805 805 805 805 805 805 804 804
780 778 776 773 767 762 759 758 758 756 752 748 746 745 744 745 746 744 741 742 747 753 756 756 757 760 763 761 760 761 763 766 768 767 764 766 771 773 775 777 774 765 757 752 747 745 749 753 755 757 760 762 764 767 768 769 771 773 775 778 780 783 785 788 789 792 794 795 796 798 799 800 801 802 802 803 804 804 804 804 805 804 804 804 804 804 804
779 776 772 768 763 758 754 753 756 756 751 746 745 744 743 744 744 740 739 744 749 752 756 762 764 763 762 764 766 768 766 764 765 770 772 771 767 766 767 769 766 759 752 745 742 744 749 753 754 757 760 761 763 766 767 768 770 772 775 777 780 783 786 788 790 792 794 795 797 798 800 800 801 801 802 803 803 804 804 804 803 803 803 803 803 803 803
778 774 768 763 761 760 757 755 755 753 750 749 747 743 740 742 743 739 739 744 751 755 759 762 761 759 762 768 770 768 765 761 763 769 771 767 762 762 766 765 758 750 746 744 744 747 750 752 755 758 760 762 764 765 766 768 771 773 775 778 781 784 786 788 790 792 794 796 797 799 799 800 800 801 802 803 803 803 802 802 802 802 802 803 803 803 803
775 770 764 759 756 756 758 757 754 751 748 746 745 741 739 740 741 742 744 749 753 755 756 755 754 759 766 767 762 760 762 763 764 765 765 762 760 759 759 758 755 750 745 743 744 747 749 752 755 758 760 762 764 765 767 770 772 774 776 779 782 784 786 788 790 791 793 795 797 798 798 799 800 800 801 801 801 801 801 801 801 802 802 802 802 803 803